Location: Auckland
(36.8670°S, 174.7670°E)
Time: 15:14:15
(UTC+12:00)

Explorer 11/Cluster Stage 4 - All Passes

Search period start: 18 July 2019 00:00
Search period end: 28 July 2019 00:00
Orbit: 467 x 1260 km, 28.8° (Epoch: 17 July)

Date Brightness Start Highest point End Pass type
(mag) Time Alt. Az. Time Alt. Az. Time Alt. Az.
18 Jul - 14:10:51 10° N 14:12:27 12° NNE 14:13:58 10° NE daylight
18 Jul - 15:57:12 10° NW 16:00:12 22° N 16:03:05 10° ENE daylight
18 Jul - 17:45:04 10° WNW 17:47:56 22° N 17:50:52 10° NE visible
18 Jul - 19:34:13 10° NW 19:35:40 12° NNW 19:37:10 10° N visible
19 Jul - 13:59:26 10° NNW 14:01:53 15° NNE 14:04:09 10° NE daylight
19 Jul - 15:46:29 10° NW 15:49:41 23° N 15:52:40 10° ENE daylight
19 Jul - 17:34:37 10° WNW 17:37:24 20° N 17:40:12 10° NE daylight
20 Jul - 13:48:13 10° NNW 13:51:18 17° NNE 13:54:05 10° NE daylight
20 Jul - 15:35:47 10° NW 15:39:10 25° N 15:42:15 10° ENE daylight
20 Jul - 17:24:11 10° WNW 17:26:53 19° N 17:29:32 10° NE daylight
21 Jul - 13:37:07 10° NW 13:40:45 20° N 13:43:56 10° ENE daylight
21 Jul - 15:25:03 10° WNW 15:28:38 26° N 15:31:50 10° ENE daylight
21 Jul - 17:13:45 10° WNW 17:16:20 17° NNW 17:18:50 10° NNE daylight
22 Jul - 11:39:47 10° N 11:42:06 12° NNE 11:44:14 10° NE daylight
22 Jul - 13:26:04 10° NW 13:30:11 23° N 13:33:42 10° ENE daylight
22 Jul - 15:14:19 10° WNW 15:18:06 27° N 15:21:24 10° NE daylight
22 Jul - 17:03:20 10° NW 17:05:46 16° NNW 17:08:07 10° NNE daylight
23 Jul - 11:27:59 10° NNW 11:31:27 15° NNE 11:34:34 10° NE daylight
23 Jul - 13:15:03 10° NW 13:19:35 27° N 13:23:24 10° ENE daylight
23 Jul - 15:03:35 10° WNW 15:07:33 27° N 15:10:59 10° NE daylight
23 Jul - 16:52:55 10° NW 16:55:12 15° NNW 16:57:21 10° NNE daylight
24 Jul - 11:16:27 10° NNW 11:20:47 19° NNE 11:24:34 10° ENE daylight
24 Jul - 13:04:04 10° NW 13:08:59 30° N 13:13:05 10° ENE daylight
24 Jul - 14:52:49 10° WNW 14:56:59 28° N 15:00:31 10° NE daylight
24 Jul - 16:42:33 10° NW 16:44:36 13° NNW 16:46:33 10° N daylight
25 Jul - 11:05:05 10° NNW 11:10:06 22° NNE 11:14:26 10° ENE daylight
25 Jul - 12:53:05 10° WNW 12:58:22 32° N 13:02:44 10° ENE daylight
25 Jul - 14:42:03 10° WNW 14:46:24 28° N 14:50:04 10° NE daylight
25 Jul - 16:32:14 10° NW 16:33:59 12° NNW 16:35:39 10° N daylight
26 Jul - 09:08:31 10° N 09:11:01 12° NNE 09:13:24 10° NE daylight
26 Jul - 10:53:48 10° NW 10:59:23 26° NNE 11:04:10 10° ENE daylight
26 Jul - 12:42:06 10° WNW 12:47:44 35° N 12:52:20 10° ENE daylight
26 Jul - 14:31:17 10° WNW 14:35:47 28° NNW 14:39:35 10° NE daylight
26 Jul - 16:22:04 10° NW 16:23:21 11° NNW 16:24:35 10° N daylight
27 Jul - 08:56:20 10° N 09:00:13 15° NNE 09:03:52 10° NE daylight
27 Jul - 10:42:35 10° NW 10:48:40 29° NNE 10:53:51 10° ENE daylight
27 Jul - 12:31:08 10° WNW 12:37:05 37° N 12:41:55 10° ENE daylight
27 Jul - 14:20:29 10° WNW 14:25:09 27° NNW 14:29:04 10° NE daylight
27 Jul - 16:12:35 10° NNW 16:12:41 10° NNW 16:12:46 10° NNW daylight
